Regional Weather Roundup
Issued by NWS

Home | Current Version | Previous Version | Text Only | Print | Product List | Glossary On
Versions: 1 2 3 4 5 6 7 8 9 10 11 12 13 14 15 16 17 18 19 20 21 22 23 24 25 26 27 28 29 30 31 32 33 34 35 36 37 38 39 40 41 42 43 44 45 46 47 48 49 50
139
ASUS43 KDMX 201701
RWRIA

WEATHER ROUNDUP FOR IOWA
NATIONAL WEATHER SERVICE DES MOINES IA
1200 PM CDT SUN MAY 20 2018

NOTE: "FAIR" INDICATES FEW OR NO CLOUDS BELOW 12,000 FEET WITH NO
SIGNIFICANT WEATHER AND/OR OBSTRUCTIONS TO VISIBILITY.

* - THESE STATIONS ARE NOT NWS STATIONS...THUS NOT UNDER NWS
QUALITY CONTROL.  THEY ALSO DO NOT REPORT WEATHER SUCH
AS PRECIPITATION OR FOG.

IAZ001>003-012>014-020>022-031>034-043>046-201800-
   NORTHWEST IOWA

CITY           SKY/WX    TMP DP  RH WIND       PRES   REMARKS
CARROLL *      CLOUDY   N/A N/A N/A E8        30.17R
CHEROKEE *     CLOUDY    56  50  80 E7        30.18R
DENISON *      CLOUDY    54  50  87 E8        30.18S
LE MARS *      CLOUDY    54  46  76 NE9       30.19S
ORANGE CITY *  CLOUDY    52  46  82 NE6       30.19S
SHELDON *      CLOUDY    52  48  87 NE12      30.18S
SIOUX CITY     CLOUDY    54  47  77 E8        30.19R
SPENCER        CLOUDY    57  45  64 NE13      30.19F
STORM LAKE *     N/A     54  50  87 NE10      30.18R
$$

IAZ055>058-069>071-079>083-090>094-201800-
   SOUTHWEST IOWA

CITY           SKY/WX    TMP DP  RH WIND       PRES   REMARKS
ATLANTIC *     CLOUDY    61  55  82 NE12G18   30.13F
AUDUBON *      CLOUDY    57  54  88 NE8       30.17S
CLARINDA *     CLOUDY    64  59  82 E8        30.13S
COUNCIL BLFS * RAIN      55  55 100 NE8       30.14R
CRESTON *      CLOUDY    61  57  88 E6        30.14S
HARLAN  *      CLOUDY    57  55  94 NE12      30.18S
LAMONI         CLOUDY    63  60  90 E3        30.12S FOG
RED OAK *      CLOUDY    64  57  77 E10       30.12S
SHENANDOAH *   CLOUDY    66  57  72 E10       30.11F
$$

IAZ047>049-059>061-072>074-084-201800-
   CENTRAL IOWA

CITY           SKY/WX    TMP DP  RH WIND       PRES   REMARKS
AMES           CLOUDY    58  54  86 NE8       30.15S
ANKENY *       CLOUDY    61  55  82 NE7       30.15S
BOONE *        CLOUDY    57  54  88 E10       30.15S
CHARITON *     CLOUDY    63  59  88 CALM      30.13R
DES MOINES     CLOUDY    63  55  75 N9        30.13S
GRINNELL*      CLOUDY    61  56  85 N7        30.15R
KNOXVILLE *    CLOUDY    64  57  77 N7        30.11F
MARSHALLTOWN   CLOUDY    57  57 100 NE9       30.15R FOG
NEWTON *       CLOUDY    61  57  88 NE8       30.15R
PELLA *        CLOUDY    67  57  70 N5        30.13F
PERRY *          N/A     59  54  84 NE8       30.16S
$$

IAZ004>006-015-016-023>025-035-036-201800-
   NORTH CENTRAL IOWA

CITY           SKY/WX    TMP DP  RH WIND       PRES   REMARKS
ALGONA *       CLOUDY    55  48  76 NE15      30.18S
CLARION *      CLOUDY    57  48  72 NE15      30.17S
ESTHERVILLE    CLOUDY    54  44  69 NE8       30.20R
FORT DODGE *   CLOUDY    57  51  80 NE13      30.17R
MASON CITY     CLOUDY    53  47  79 E16       30.20S
FOREST CITY *  CLOUDY    55  50  82 NE10G18   30.18F
WEBSTER CITY * CLOUDY    57  52  82 E12       30.15R
IOWA FALLS *   CLOUDY    55  53  92 NE12      30.17S
$$

IAZ007>011-017>019-026>030-037>042-050>054-066-201800-
   NORTHEAST IOWA

CITY           SKY/WX    TMP DP  RH WIND       PRES   REMARKS
CEDAR RAPIDS   CLOUDY    57  55  93 E13       30.15R
CHARLES CITY * CLOUDY    54  50  87 NE12      30.20R
CLINTON *        N/A     55  51  86 MISG      30.18R
DECORAH *      CLOUDY    54  48  82 NE8G14    30.20R
DUBUQUE        CLOUDY    53  49  86 E10       30.18S
MONTICELLO *   CLOUDY    54  52  94 E7G14     30.17R
OELWEIN *      CLOUDY    55  52  88 E12G18    30.18R
WATERLOO       CLOUDY    56  54  93 E10       30.16R
$$

IAZ064-065-067-068-078-201800-
   EAST CENTRAL IOWA

CITY           SKY/WX    TMP DP  RH WIND       PRES   REMARKS
DAVENPORT      CLOUDY    57  50  77 E14       30.18R
IOWA CITY      CLOUDY    63  56  78 NE12      30.16R
MUSCATINE *    CLOUDY    68  59  73 NE8       30.13R
QUAD CITIES    CLOUDY    63  52  67 E12       30.14R
$$

IAZ062-063-075>077-085>089-095>099-201800-
   SOUTHEAST IOWA

CITY           SKY/WX    TMP DP  RH WIND       PRES   REMARKS
BURLINGTON     HVY RAIN  70  65  84 S8        30.12R
FAIRFIELD *    CLOUDY    70  64  83 NE5       30.11R
FORT MADISON * CLOUDY    73  66  78 S3        30.14R
KEOKUK *       CLOUDY    73  63  68 SW16G22   30.13R
OSKALOOSA *    CLOUDY    66  62  87 NE10      30.12S
CENTERVILLE *    N/A     64  64 100 CALM      30.14S
OTTUMWA        CLOUDY    69  63  81 E5        30.12R
WASHINGTON *   CLOUDY    70  66  88 E9        30.13R HAZE
$$

ABBREVIATIONS USED IN REMARKS
   TC - TEMPERATURES IN CELSIUS
  WCI - WIND CHILL INDEX
   HX - HEAT INDEX
  VSB - VISIBILITY
$$





USA.gov is the U.S. government's official web portal to all federal, state and local government web resources and services.